Location: NJAA Observatory
(40.6819°N, 74.8979°W)
Time: 14:41:11
(UTC-04:00)

Cosmos 2237 Rocket - Visible Passes

Search period start: 18 April 2014 00:00
Search period end: 28 April 2014 00:00
Orbit: 837 x 849 km, 71.0° (Epoch: 17 April)

Date Brightness Start Highest point End Pass type
(mag) Time Alt. Az. Time Alt. Az. Time Alt. Az.
18 Apr 3.8 20:56:04 10° NW 21:01:01 33° WSW 21:05:58 10° SSW visible
19 Apr 3.8 20:41:17 10° NW 20:46:19 34° WSW 20:51:20 10° SSW visible
20 Apr 3.7 20:26:31 10° NW 20:31:36 36° WSW 20:36:41 10° S visible
21 Apr 3.7 20:11:45 10° NW 20:16:54 38° WSW 20:22:02 10° S visible
